This is the latest recevied weather packets stored in our database for station/object W1HVD. If no packets are shown the sender has not sent any weather packets the latest 1 day(s).
| Time | Temp. | Humidity | Pressure | Rain* | Wind** | Luminosity | Snow |
|---|---|---|---|---|---|---|---|
| 1778073082 | 17.22° C | 77% | 1011.6 hPa | 0 mm | - | 289 W/m² | - |
| 1778072477 | 17.22° C | 78% | 1011.4 hPa | 0 mm | - | 387 W/m² | - |
| 1778072175 | 16.67° C | 78% | 1011.6 hPa | 0 mm | - | 189 W/m² | - |
| 1778071570 | 16.67° C | 80% | 1011.4 hPa | 0 mm | - | 328 W/m² | - |
| 1778070965 | 16.11° C | 81% | 1011.2 hPa | 0 mm | - | 262 W/m² | - |
| 1778070058 | 15.56° C | 83% | 1011.5 hPa | 0 mm | - | 163 W/m² | - |
| 1778069755 | 15° C | 84% | 1011.7 hPa | 0 mm | - | 177 W/m² | - |
| 1778068846 | 15.56° C | 84% | 1012.1 hPa | 0 mm | - | 93 W/m² | - |
| 1778068544 | 15.56° C | 84% | 1011.9 hPa | 0 mm | - | 140 W/m² | - |
| 1778067638 | 15° C | 86% | 1012 hPa | 0 mm | - | 104 W/m² | - |
| 1778066729 | 15° C | 86% | 1012 hPa | 0 mm | - | 72 W/m² | - |
| 1778065519 | 15° C | 87% | 1012.1 hPa | 0 mm | - | 43 W/m² | - |
| 1778065216 | 15° C | 87% | 1012.1 hPa | 0 mm | - | 60 W/m² | - |
| 1778063702 | 14.44° C | 88% | 1012.3 hPa | 0 mm | - | 38 W/m² | - |
| 1778062794 | 14.44° C | 89% | 1011.9 hPa | 0 mm | - | 21 W/m² | - |
| 1778062490 | 14.44° C | 88% | 1012 hPa | 0 mm | - | 18 W/m² | - |
| 1778061886 | 14.44° C | 89% | 1011.8 hPa | 0 mm | - | 15 W/m² | - |
| 1778061282 | 14.44° C | 89% | 1011.5 hPa | 0 mm | - | 12 W/m² | - |
| 1778060977 | 14.44° C | 89% | 1011.6 hPa | 0 mm | - | 9 W/m² | - |
| 1778059769 | 14.44° C | 89% | 1011.7 hPa | 0 mm | - | 1 W/m² | - |
| 1778059467 | 13.89° C | 90% | 1012 hPa | 0 mm | - | 1 W/m² | - |
| 1778059163 | 14.44° C | 89% | 1011.8 hPa | 0 mm | - | 0 W/m² | - |
| 1778057951 | 13.89° C | 89% | 1011.9 hPa | 0 mm | - | 0 W/m² | - |
| 1778057344 | 13.89° C | 89% | 1012 hPa | 0 mm | - | 0 W/m² | - |
| 1778056738 | 13.89° C | 89% | 1011.9 hPa | 0 mm | - | 0 W/m² | - |
* Rain latest hour (hover to see other rain measurements)
** Current wind speed in m/s (hover to see current wind gust speed)